AAL1416 KBOS-KPHL

Flight info

Callsign AAL1416
Flight time 1h 5m
Altitude 26000
Route SSOXS7 SSOXS Q167 RIFLE Q439 BRIGS JIIMS4
Aircraft A20N/M-SDE2E3FGHIRWXY/LB1

Departure

Time 2026-05-06 21:23
Airport Boston Logan International Airport (KBOS)

Arrival

Time 2026-05-06 22:28
Airport Philadelphia International Airport (KPHL)
Time Latitude Longitude Altitude Speed Heading
2026-05-06 20:55 42.36208 -71.02143 25 ft 0 kts 174°
2026-05-06 21:11 42.36209 -71.02144 25 ft 2 kts 174°
2026-05-06 21:11 42.36226 -71.02146 31 ft 2 kts 174°
2026-05-06 21:11 42.36243 -71.02148 26 ft 2 kts 176°
2026-05-06 21:11 42.36259 -71.02149 28 ft 2 kts 180°
2026-05-06 21:12 42.36276 -71.02147 27 ft 2 kts 221°
2026-05-06 21:12 42.36281 -71.02138 27 ft 0 kts 257°
2026-05-06 21:14 42.36277 -71.02159 28 ft 4 kts 256°
2026-05-06 21:14 42.36267 -71.02208 29 ft 6 kts 250°
2026-05-06 21:14 42.36232 -71.02259 25 ft 9 kts 208°
2026-05-06 21:14 42.36172 -71.02279 25 ft 9 kts 182°
2026-05-06 21:15 42.36116 -71.02260 27 ft 8 kts 143°
2026-05-06 21:15 42.36074 -71.02171 27 ft 16 kts 120°
2026-05-06 21:15 42.36007 -71.02028 29 ft 19 kts 123°
2026-05-06 21:15 42.35940 -71.01873 28 ft 19 kts 120°
2026-05-06 21:16 42.35899 -71.01704 28 ft 19 kts 100°
2026-05-06 21:16 42.35912 -71.01540 26 ft 17 kts 39°
2026-05-06 21:16 42.36026 -71.01483 27 ft 18 kts 20°
2026-05-06 21:16 42.36150 -71.01423 27 ft 20 kts 20°
2026-05-06 21:17 42.36285 -71.01357 26 ft 21 kts 20°
2026-05-06 21:17 42.36429 -71.01287 25 ft 23 kts 19°
2026-05-06 21:17 42.36582 -71.01215 25 ft 24 kts 19°
2026-05-06 21:17 42.36725 -71.01146 28 ft 17 kts 19°
2026-05-06 21:18 42.36825 -71.01193 26 ft 16 kts 319°
2026-05-06 21:18 42.36913 -71.01194 25 ft 14 kts 36°
2026-05-06 21:18 42.36993 -71.01108 25 ft 15 kts 22°
2026-05-06 21:18 42.37087 -71.01043 25 ft 16 kts 27°
2026-05-06 21:19 42.37193 -71.00976 25 ft 18 kts 24°
2026-05-06 21:19 42.37310 -71.00905 27 ft 19 kts 22°
2026-05-06 21:19 42.37440 -71.00840 27 ft 21 kts 20°
2026-05-06 21:19 42.37580 -71.00772 26 ft 22 kts 19°
2026-05-06 21:20 42.37730 -71.00700 27 ft 23 kts 19°
2026-05-06 21:20 42.37838 -71.00615 25 ft 13 kts 76°
2026-05-06 21:20 42.37834 -71.00576 25 ft 1 kts 108°
2026-05-06 21:20 42.37819 -71.00517 25 ft 9 kts 110°
2026-05-06 21:21 42.37765 -71.00488 27 ft 9 kts 195°
2026-05-06 21:21 42.37741 -71.00499 25 ft 0 kts 200°
2026-05-06 21:22 42.37520 -71.00604 26 ft 76 kts 199°
2026-05-06 21:23 42.36793 -71.00960 28 ft 145 kts 200°
2026-05-06 21:23 42.35708 -71.01484 380 ft 179 kts 200°
2026-05-06 21:23 42.34445 -71.01806 1356 ft 187 kts 176°
2026-05-06 21:23 42.33287 -71.01009 2647 ft 197 kts 150°
2026-05-06 21:24 42.32338 -70.99555 3398 ft 221 kts 137°
2026-05-06 21:24 42.31501 -70.97846 4261 ft 231 kts 129°
2026-05-06 21:24 42.31061 -70.95697 4736 ft 258 kts 98°
2026-05-06 21:24 42.31282 -70.93286 4955 ft 281 kts 85°
2026-05-06 21:25 42.31731 -70.90540 5005 ft 310 kts 82°
2026-05-06 21:25 42.32222 -70.87692 5006 ft 311 kts 82°
2026-05-06 21:25 42.32688 -70.84840 5175 ft 312 kts 83°
2026-05-06 21:25 42.33096 -70.81987 5744 ft 314 kts 91°
2026-05-06 21:26 42.32937 -70.79094 6757 ft 299 kts 115°
2026-05-06 21:26 42.32206 -70.76643 7630 ft 295 kts 125°
2026-05-06 21:26 42.31315 -70.74084 8558 ft 300 kts 125°
2026-05-06 21:26 42.30429 -70.71537 9455 ft 306 kts 124°
2026-05-06 21:27 42.29325 -70.69131 10257 ft 297 kts 143°
2026-05-06 21:27 42.27665 -70.67506 10618 ft 297 kts 167°
2026-05-06 21:27 42.25655 -70.66546 10906 ft 316 kts 171°
2026-05-06 21:27 42.23528 -70.65632 11539 ft 325 kts 171°
2026-05-06 21:28 42.21357 -70.64685 12338 ft 331 kts 171°
2026-05-06 21:28 42.19149 -70.63700 13133 ft 337 kts 170°
2026-05-06 21:28 42.16903 -70.62683 13860 ft 343 kts 171°
2026-05-06 21:28 42.14602 -70.62031 14567 ft 335 kts 184°
2026-05-06 21:29 42.12301 -70.62155 15245 ft 329 kts 197°
2026-05-06 21:29 42.10118 -70.62972 15936 ft 327 kts 204°
2026-05-06 21:29 42.07963 -70.63948 16610 ft 331 kts 204°
2026-05-06 21:29 42.05769 -70.64926 17268 ft 337 kts 204°
2026-05-06 21:30 42.03527 -70.65916 17940 ft 341 kts 204°
2026-05-06 21:30 42.01250 -70.66918 18548 ft 345 kts 204°
2026-05-06 21:30 41.98955 -70.67925 19181 ft 348 kts 204°
2026-05-06 21:30 41.96638 -70.68941 19784 ft 352 kts 204°
2026-05-06 21:31 41.94300 -70.69967 20399 ft 355 kts 204°
2026-05-06 21:31 41.91936 -70.71004 20984 ft 359 kts 204°
2026-05-06 21:31 41.89543 -70.72053 21573 ft 363 kts 204°
2026-05-06 21:31 41.87159 -70.73097 22150 ft 367 kts 204°
2026-05-06 21:32 41.84731 -70.74191 22717 ft 369 kts 206°
2026-05-06 21:32 41.80135 -70.77267 23777 ft 371 kts 214°
2026-05-06 21:32 41.77874 -70.78982 24277 ft 373 kts 214°
2026-05-06 21:33 41.75636 -70.80668 24776 ft 376 kts 214°
2026-05-06 21:33 41.73353 -70.82383 25235 ft 379 kts 215°
2026-05-06 21:33 41.71042 -70.84116 25652 ft 382 kts 215°
2026-05-06 21:33 41.68711 -70.85862 25828 ft 383 kts 215°
2026-05-06 21:34 41.66555 -70.87475 25884 ft 383 kts 215°
2026-05-06 21:34 41.64255 -70.89194 25872 ft 383 kts 215°
2026-05-06 21:34 41.61900 -70.90954 25872 ft 383 kts 215°
2026-05-06 21:34 41.59599 -70.92673 25879 ft 383 kts 215°
2026-05-06 21:35 41.57299 -70.94455 25882 ft 380 kts 219°
2026-05-06 21:35 41.55208 -70.96584 25882 ft 375 kts 227°
2026-05-06 21:35 41.53391 -70.99063 25881 ft 371 kts 234°
2026-05-06 21:35 41.51867 -71.01823 25884 ft 368 kts 240°
2026-05-06 21:36 41.50459 -71.04684 25882 ft 368 kts 239°
2026-05-06 21:36 41.49044 -71.07524 25879 ft 368 kts 239°
2026-05-06 21:36 41.47618 -71.10372 25886 ft 368 kts 239°
2026-05-06 21:36 41.46196 -71.13207 25881 ft 368 kts 239°
2026-05-06 21:37 41.44789 -71.16007 25865 ft 368 kts 239°
2026-05-06 21:37 41.43365 -71.18840 25872 ft 368 kts 239°
2026-05-06 21:37 41.41939 -71.21675 25869 ft 368 kts 239°
2026-05-06 21:37 41.40513 -71.24507 25873 ft 368 kts 239°
2026-05-06 21:38 41.39084 -71.27344 25872 ft 368 kts 239°
2026-05-06 21:38 41.37656 -71.30175 25864 ft 367 kts 239°
2026-05-06 21:38 41.36232 -71.32998 25868 ft 368 kts 239°
2026-05-06 21:38 41.34821 -71.35790 25880 ft 368 kts 239°
2026-05-06 21:39 41.33396 -71.38613 25886 ft 368 kts 239°
2026-05-06 21:39 41.32002 -71.41372 25883 ft 367 kts 239°
2026-05-06 21:39 41.30576 -71.44192 25892 ft 367 kts 240°
2026-05-06 21:39 41.29154 -71.47000 25892 ft 367 kts 240°
2026-05-06 21:40 41.27725 -71.49820 25890 ft 367 kts 240°
2026-05-06 21:40 41.26347 -71.52537 25886 ft 367 kts 240°
2026-05-06 21:40 41.24919 -71.55350 25890 ft 367 kts 240°
2026-05-06 21:40 41.23494 -71.58154 25887 ft 366 kts 240°
2026-05-06 21:41 41.22069 -71.60957 25886 ft 366 kts 240°
2026-05-06 21:41 41.20664 -71.63717 25887 ft 366 kts 240°
2026-05-06 21:41 41.19479 -71.66041 25888 ft 366 kts 240°
2026-05-06 21:41 41.18050 -71.68845 25888 ft 366 kts 240°
2026-05-06 21:42 41.16622 -71.71643 25885 ft 365 kts 240°
2026-05-06 21:42 41.15212 -71.74403 25886 ft 365 kts 240°
2026-05-06 21:42 41.13787 -71.77191 25885 ft 365 kts 240°
2026-05-06 21:42 41.12365 -71.79986 25886 ft 365 kts 240°
2026-05-06 21:43 41.10949 -71.82776 25885 ft 364 kts 240°
2026-05-06 21:43 41.09534 -71.85561 25888 ft 364 kts 240°
2026-05-06 21:43 41.08121 -71.88337 25889 ft 364 kts 240°
2026-05-06 21:43 41.06703 -71.91121 25887 ft 364 kts 240°
2026-05-06 21:44 41.05287 -71.93896 25887 ft 364 kts 240°
2026-05-06 21:44 41.03888 -71.96685 25887 ft 362 kts 243°
2026-05-06 21:44 41.02683 -71.99607 25889 ft 360 kts 248°
2026-05-06 21:44 41.01638 -72.02618 25886 ft 359 kts 248°
2026-05-06 21:45 41.00588 -72.05625 25884 ft 359 kts 248°
2026-05-06 21:45 40.99533 -72.08624 25866 ft 359 kts 248°
2026-05-06 21:45 40.98479 -72.11613 25870 ft 359 kts 248°
2026-05-06 21:45 40.97421 -72.14606 25869 ft 359 kts 248°
2026-05-06 21:46 40.96365 -72.17591 25870 ft 358 kts 248°
2026-05-06 21:46 40.95309 -72.20575 25868 ft 358 kts 248°
2026-05-06 21:46 40.94265 -72.23520 25869 ft 358 kts 248°
2026-05-06 21:46 40.93192 -72.26539 25867 ft 358 kts 247°
2026-05-06 21:47 40.92002 -72.29390 25869 ft 361 kts 242°
2026-05-06 21:47 40.90560 -72.32125 25870 ft 364 kts 237°
2026-05-06 21:47 40.88901 -72.34672 25868 ft 368 kts 232°
2026-05-06 21:47 40.87077 -72.37053 25868 ft 369 kts 231°
2026-05-06 21:48 40.85244 -72.39434 25866 ft 369 kts 231°
2026-05-06 21:48 40.83415 -72.41819 25860 ft 369 kts 231°
2026-05-06 21:48 40.81590 -72.44203 25860 ft 369 kts 231°
2026-05-06 21:48 40.79733 -72.46554 25858 ft 372 kts 228°
2026-05-06 21:49 40.77737 -72.48736 25858 ft 373 kts 226°
2026-05-06 21:49 40.75799 -72.50829 25860 ft 373 kts 226°
2026-05-06 21:49 40.73796 -72.52995 25859 ft 373 kts 226°
2026-05-06 21:49 40.71785 -72.55172 25861 ft 373 kts 227°
2026-05-06 21:50 40.69777 -72.57346 25791 ft 373 kts 227°
2026-05-06 21:50 40.67874 -72.59631 25562 ft 368 kts 232°
2026-05-06 21:50 40.66065 -72.62017 25315 ft 366 kts 232°
2026-05-06 21:50 40.64264 -72.64385 25079 ft 365 kts 231°
2026-05-06 21:51 40.62493 -72.66707 24848 ft 365 kts 231°
2026-05-06 21:51 40.61003 -72.68657 24654 ft 364 kts 231°
2026-05-06 21:51 40.59207 -72.71005 24422 ft 363 kts 231°
2026-05-06 21:51 40.57418 -72.73340 24188 ft 362 kts 231°
2026-05-06 21:52 40.55635 -72.75666 23958 ft 361 kts 231°
2026-05-06 21:52 40.53854 -72.77987 23732 ft 360 kts 231°
2026-05-06 21:52 40.52073 -72.80308 23509 ft 359 kts 231°
2026-05-06 21:52 40.50257 -72.82577 23261 ft 360 kts 230°
2026-05-06 21:53 40.48405 -72.84796 22984 ft 359 kts 229°
2026-05-06 21:53 40.46552 -72.86998 22720 ft 358 kts 229°
2026-05-06 21:53 40.44713 -72.89191 22457 ft 357 kts 229°
2026-05-06 21:53 40.42883 -72.91384 22187 ft 355 kts 229°
2026-05-06 21:54 40.41062 -72.93573 21926 ft 355 kts 229°
2026-05-06 21:54 40.39247 -72.95758 21672 ft 354 kts 229°
2026-05-06 21:54 40.38052 -72.97197 21504 ft 353 kts 229°
2026-05-06 21:54 40.35658 -73.00077 21168 ft 351 kts 229°
2026-05-06 21:55 40.34443 -73.01537 21002 ft 351 kts 229°
2026-05-06 21:55 40.32059 -73.04401 20673 ft 353 kts 228°
2026-05-06 21:55 40.30220 -73.06615 20424 ft 362 kts 228°
2026-05-06 21:55 40.28369 -73.08835 20177 ft 360 kts 228°
2026-05-06 21:56 40.27123 -73.10325 20013 ft 358 kts 228°
2026-05-06 21:56 40.25296 -73.12508 19886 ft 356 kts 228°
2026-05-06 21:56 40.23484 -73.14676 19864 ft 358 kts 228°
2026-05-06 21:56 40.21644 -73.16876 19865 ft 358 kts 228°
2026-05-06 21:57 40.19805 -73.19073 19864 ft 358 kts 228°
2026-05-06 21:57 40.17965 -73.21270 19865 ft 358 kts 228°
2026-05-06 21:57 40.16127 -73.23464 19865 ft 358 kts 228°
2026-05-06 21:57 40.14285 -73.25660 19867 ft 358 kts 228°
2026-05-06 21:58 40.12444 -73.27854 19867 ft 358 kts 228°
2026-05-06 21:58 40.10602 -73.30047 19866 ft 358 kts 228°
2026-05-06 21:58 40.08757 -73.32240 19867 ft 358 kts 228°
2026-05-06 21:58 40.06916 -73.34428 19867 ft 358 kts 228°
2026-05-06 21:59 40.05072 -73.36617 19870 ft 358 kts 227°
2026-05-06 21:59 40.03227 -73.38806 19864 ft 358 kts 228°
2026-05-06 21:59 40.01382 -73.40993 19869 ft 358 kts 227°
2026-05-06 21:59 39.99537 -73.43179 19869 ft 359 kts 227°
2026-05-06 22:00 39.97690 -73.45365 19868 ft 359 kts 227°
2026-05-06 22:00 39.95838 -73.47555 19869 ft 359 kts 227°
2026-05-06 22:00 39.93989 -73.49739 19870 ft 359 kts 227°
2026-05-06 22:00 39.92139 -73.51922 19871 ft 359 kts 227°
2026-05-06 22:01 39.90320 -73.54140 19870 ft 357 kts 231°
2026-05-06 22:01 39.88718 -73.56531 19869 ft 354 kts 235°
2026-05-06 22:01 39.87169 -73.59016 19867 ft 354 kts 235°
2026-05-06 22:01 39.85609 -73.61505 19867 ft 355 kts 235°
2026-05-06 22:02 39.84044 -73.63994 19866 ft 356 kts 235°
2026-05-06 22:02 39.82471 -73.66488 19871 ft 355 kts 235°
2026-05-06 22:02 39.80903 -73.68972 19869 ft 355 kts 235°
2026-05-06 22:02 39.79333 -73.71457 19870 ft 355 kts 235°
2026-05-06 22:03 39.77761 -73.73943 19870 ft 356 kts 235°
2026-05-06 22:03 39.76206 -73.76402 19709 ft 357 kts 235°
2026-05-06 22:03 39.74629 -73.78896 19472 ft 357 kts 234°
2026-05-06 22:03 39.73043 -73.81400 19249 ft 359 kts 234°
2026-05-06 22:04 39.71454 -73.83908 19011 ft 360 kts 234°
2026-05-06 22:04 39.69857 -73.86426 18771 ft 362 kts 234°
2026-05-06 22:04 39.68255 -73.88950 18549 ft 363 kts 234°
2026-05-06 22:04 39.66647 -73.91480 18316 ft 364 kts 234°
2026-05-06 22:05 39.65027 -73.94027 18071 ft 366 kts 233°
2026-05-06 22:05 39.63404 -73.96576 17766 ft 367 kts 233°
2026-05-06 22:05 39.61776 -73.99131 17250 ft 367 kts 233°
2026-05-06 22:05 39.60175 -74.01639 16802 ft 365 kts 233°
2026-05-06 22:06 39.58549 -74.04188 16231 ft 367 kts 233°
2026-05-06 22:06 39.56925 -74.06731 15695 ft 365 kts 233°
2026-05-06 22:06 39.55333 -74.09217 15471 ft 351 kts 233°
2026-05-06 22:06 39.53830 -74.11650 14794 ft 340 kts 239°
2026-05-06 22:07 39.52834 -74.14362 13940 ft 333 kts 253°
2026-05-06 22:07 39.52442 -74.17193 13521 ft 318 kts 265°
2026-05-06 22:07 39.52484 -74.19987 13342 ft 308 kts 270°
2026-05-06 22:07 39.52555 -74.22794 13221 ft 313 kts 269°
2026-05-06 22:08 39.52607 -74.25601 13082 ft 311 kts 269°
2026-05-06 22:08 39.52655 -74.28399 12858 ft 310 kts 269°
2026-05-06 22:08 39.52703 -74.31186 12630 ft 309 kts 269°
2026-05-06 22:08 39.52752 -74.33934 12415 ft 309 kts 269°
2026-05-06 22:09 39.52803 -74.36730 12181 ft 309 kts 269°
2026-05-06 22:09 39.52853 -74.39445 11940 ft 294 kts 269°
2026-05-06 22:09 39.52902 -74.42064 11472 ft 287 kts 269°
2026-05-06 22:09 39.52947 -74.44657 11319 ft 291 kts 269°
2026-05-06 22:10 39.52991 -74.47282 11204 ft 291 kts 269°
2026-05-06 22:10 39.53036 -74.49901 11098 ft 291 kts 269°
2026-05-06 22:10 39.53080 -74.52471 11005 ft 280 kts 269°
2026-05-06 22:10 39.53124 -74.54930 10880 ft 264 kts 269°
2026-05-06 22:11 39.53164 -74.57241 10574 ft 253 kts 269°
2026-05-06 22:11 39.53201 -74.59508 10322 ft 250 kts 268°
2026-05-06 22:11 39.53235 -74.61778 10138 ft 253 kts 268°
2026-05-06 22:11 39.53270 -74.64055 9947 ft 251 kts 268°
2026-05-06 22:12 39.53306 -74.66312 9761 ft 250 kts 268°
2026-05-06 22:12 39.53341 -74.68557 9567 ft 250 kts 268°
2026-05-06 22:12 39.53375 -74.70813 9386 ft 250 kts 268°
2026-05-06 22:12 39.53409 -74.73056 9197 ft 248 kts 268°
2026-05-06 22:13 39.53442 -74.75292 9042 ft 248 kts 268°
2026-05-06 22:13 39.53475 -74.77531 8911 ft 248 kts 269°
2026-05-06 22:13 39.53510 -74.79734 8702 ft 247 kts 269°
2026-05-06 22:13 39.53545 -74.81937 8532 ft 242 kts 269°
2026-05-06 22:14 39.53580 -74.84109 8379 ft 244 kts 269°
2026-05-06 22:14 39.53613 -74.86312 8142 ft 246 kts 269°
2026-05-06 22:14 39.53645 -74.88522 7801 ft 244 kts 269°
2026-05-06 22:14 39.53677 -74.90717 7455 ft 242 kts 269°
2026-05-06 22:15 39.53710 -74.92896 7120 ft 242 kts 269°
2026-05-06 22:15 39.53783 -74.94950 6797 ft 243 kts 277°
2026-05-06 22:15 39.54409 -74.96983 6468 ft 248 kts 300°
2026-05-06 22:15 39.55676 -74.98545 6138 ft 257 kts 318°
2026-05-06 22:16 39.57135 -74.99881 5775 ft 255 kts 318°
2026-05-06 22:16 39.58560 -75.01186 5449 ft 252 kts 318°
2026-05-06 22:16 39.59977 -75.02491 5176 ft 247 kts 318°
2026-05-06 22:16 39.61366 -75.03775 4897 ft 243 kts 318°
2026-05-06 22:17 39.62732 -75.05046 4628 ft 239 kts 317°
2026-05-06 22:17 39.64076 -75.06299 4349 ft 236 kts 317°
2026-05-06 22:17 39.65403 -75.07539 4061 ft 234 kts 317°
2026-05-06 22:17 39.66776 -75.08680 3780 ft 238 kts 332°
2026-05-06 22:18 39.68395 -75.09025 3524 ft 250 kts
2026-05-06 22:18 39.70140 -75.08706 3293 ft 252 kts
2026-05-06 22:18 39.71882 -75.08393 3078 ft 253 kts
2026-05-06 22:18 39.73475 -75.07459 3021 ft 253 kts 38°
2026-05-06 22:19 39.74679 -75.05830 3021 ft 249 kts 47°
2026-05-06 22:19 39.75852 -75.04149 3017 ft 251 kts 47°
2026-05-06 22:19 39.77023 -75.02474 3018 ft 249 kts 47°
2026-05-06 22:19 39.78190 -75.00810 3021 ft 250 kts 47°
2026-05-06 22:20 39.79369 -74.99130 3019 ft 250 kts 47°
2026-05-06 22:20 39.80538 -74.97468 3023 ft 249 kts 46°
2026-05-06 22:20 39.81714 -74.95795 2930 ft 252 kts 47°
2026-05-06 22:20 39.82896 -74.94096 2694 ft 253 kts 51°
2026-05-06 22:21 39.83840 -74.92187 2449 ft 255 kts 55°
2026-05-06 22:21 39.85190 -74.90681 2176 ft 253 kts 22°
2026-05-06 22:21 39.86840 -74.90271 2032 ft 235 kts 348°
2026-05-06 22:21 39.88241 -74.90955 2013 ft 207 kts 312°
2026-05-06 22:22 39.89040 -74.92347 2017 ft 180 kts 289°
2026-05-06 22:22 39.89655 -74.93789 2021 ft 186 kts 295°
2026-05-06 22:22 39.90391 -74.95131 2024 ft 185 kts 298°
2026-05-06 22:22 39.91170 -74.96469 2022 ft 185 kts 298°
2026-05-06 22:23 39.91772 -74.97901 2023 ft 176 kts 278°
2026-05-06 22:23 39.91899 -74.99460 2027 ft 172 kts 260°
2026-05-06 22:23 39.91733 -75.00977 2026 ft 167 kts 253°
2026-05-06 22:23 39.91455 -75.02480 2027 ft 174 kts 252°
2026-05-06 22:24 39.91168 -75.03946 2011 ft 158 kts 252°
2026-05-06 22:24 39.90919 -75.05224 2012 ft 134 kts 250°
2026-05-06 22:24 39.90692 -75.06349 2031 ft 130 kts 249°
2026-05-06 22:24 39.90466 -75.07482 2022 ft 127 kts 250°
2026-05-06 22:25 39.90241 -75.08611 2022 ft 130 kts 250°
2026-05-06 22:25 39.90012 -75.09764 1939 ft 133 kts 251°
2026-05-06 22:25 39.89783 -75.10918 1770 ft 131 kts 251°
2026-05-06 22:25 39.89555 -75.12067 1604 ft 131 kts 252°
2026-05-06 22:26 39.89327 -75.13217 1438 ft 128 kts 251°
2026-05-06 22:26 39.89120 -75.14267 1266 ft 113 kts 249°
2026-05-06 22:26 39.88913 -75.15286 1125 ft 125 kts 250°
2026-05-06 22:26 39.88700 -75.16369 950 ft 122 kts 250°
2026-05-06 22:27 39.88486 -75.17443 804 ft 127 kts 250°
2026-05-06 22:27 39.88262 -75.18572 637 ft 127 kts 253°
2026-05-06 22:27 39.88045 -75.19668 472 ft 123 kts 251°
2026-05-06 22:27 39.87830 -75.20744 310 ft 125 kts 250°
2026-05-06 22:28 39.87617 -75.21816 144 ft 120 kts 252°
2026-05-06 22:28 39.87409 -75.22848 22 ft 112 kts 256°
2026-05-06 22:28 39.87245 -75.23666 19 ft 76 kts 255°
2026-05-06 22:28 39.87180 -75.24075 23 ft 8 kts 287°
2026-05-06 22:29 39.87210 -75.24133 27 ft 0 kts 323°
2026-05-06 22:29 39.87253 -75.24169 27 ft 16 kts 328°
2026-05-06 22:29 39.87321 -75.24246 22 ft 12 kts 276°
2026-05-06 22:29 39.87299 -75.24357 24 ft 13 kts 255°
2026-05-06 22:30 39.87280 -75.24445 22 ft 9 kts 254°
2026-05-06 22:30 39.87261 -75.24533 22 ft 12 kts 254°
2026-05-06 22:30 39.87237 -75.24647 19 ft 12 kts 255°
2026-05-06 22:30 39.87241 -75.24718 18 ft 4 kts 307°
2026-05-06 22:31 39.87281 -75.24726 18 ft 8 kts
2026-05-06 22:31 39.87294 -75.24725 18 ft 0 kts